DAL1210 KSLC-KSAN

Flight info

Callsign DAL1210
Flight time N/A
Altitude 36000
Route ARCHZ1 WINEN LAKRR Q73 LVELL LUCKI1
Aircraft A21N/M-SDE3FGHIRWY/LB1

Departure

Time N/A
Airport Salt Lake City International Airport (KSLC)

Arrival

Time 2026-04-22 22:41
Airport San Diego International Airport (KSAN)
Time Latitude Longitude Altitude Speed Heading
2026-04-22 21:56 36.17781 -114.24760 36024 ft 411 kts 209°
2026-04-22 21:56 36.12593 -114.27557 36019 ft 401 kts 217°
2026-04-22 21:57 36.07902 -114.31174 36010 ft 393 kts 224°
2026-04-22 21:57 36.03726 -114.35518 35999 ft 387 kts 231°
2026-04-22 21:58 36.00084 -114.40360 35991 ft 385 kts 234°
2026-04-22 21:58 35.96489 -114.45302 35985 ft 389 kts 234°
2026-04-22 21:59 35.92876 -114.50278 35996 ft 392 kts 234°
2026-04-22 21:59 35.89221 -114.55312 35989 ft 394 kts 234°
2026-04-22 22:00 35.85566 -114.60345 35987 ft 395 kts 234°
2026-04-22 22:00 35.81913 -114.65374 35983 ft 395 kts 234°
2026-04-22 22:01 35.78233 -114.70425 35986 ft 398 kts 234°
2026-04-22 22:01 35.74462 -114.75408 35970 ft 402 kts 228°
2026-04-22 22:02 35.69828 -114.79444 35978 ft 410 kts 220°
2026-04-22 22:02 35.65032 -114.83266 35989 ft 411 kts 221°
2026-04-22 22:03 35.60201 -114.87121 36002 ft 411 kts 221°
2026-04-22 22:03 35.55370 -114.90971 36022 ft 413 kts 221°
2026-04-22 22:04 35.50561 -114.94801 36030 ft 411 kts 221°
2026-04-22 22:04 35.45737 -114.98637 36040 ft 412 kts 221°
2026-04-22 22:05 35.40929 -115.02457 36045 ft 414 kts 221°
2026-04-22 22:05 35.36111 -115.06280 36052 ft 412 kts 221°
2026-04-22 22:06 35.31290 -115.10098 36043 ft 412 kts 221°
2026-04-22 22:06 35.26479 -115.13902 36055 ft 413 kts 221°
2026-04-22 22:07 35.21651 -115.17695 36051 ft 415 kts 219°
2026-04-22 22:07 35.16484 -115.20977 36046 ft 424 kts 214°
2026-04-22 22:08 35.10939 -115.23666 36046 ft 431 kts 208°
2026-04-22 22:08 35.05167 -115.25694 36040 ft 436 kts 203°
2026-04-22 22:09 34.99171 -115.27331 36038 ft 438 kts 202°
2026-04-22 22:09 34.93232 -115.28952 36159 ft 434 kts 203°
2026-04-22 22:10 34.87327 -115.30557 36043 ft 435 kts 202°
2026-04-22 22:10 34.81440 -115.32147 36030 ft 432 kts 203°
2026-04-22 22:11 34.75706 -115.34064 36012 ft 423 kts 208°
2026-04-22 22:11 34.70105 -115.36352 36016 ft 422 kts 208°
2026-04-22 22:12 34.64544 -115.38610 36004 ft 423 kts 208°
2026-04-22 22:12 34.58918 -115.40900 36003 ft 422 kts 208°
2026-04-22 22:13 34.53292 -115.43184 35994 ft 422 kts 208°
2026-04-22 22:13 34.47733 -115.45443 35991 ft 422 kts 208°
2026-04-22 22:14 34.42151 -115.47720 35995 ft 420 kts 209°
2026-04-22 22:14 34.36803 -115.50372 35987 ft 413 kts 215°
2026-04-22 22:15 34.31723 -115.53610 36008 ft 408 kts 220°
2026-04-22 22:15 34.26905 -115.57158 36021 ft 407 kts 221°
2026-04-22 22:16 34.21965 -115.60585 36024 ft 411 kts 217°
2026-04-22 22:16 34.16745 -115.63477 36032 ft 416 kts 212°
2026-04-22 22:17 34.11330 -115.66048 36047 ft 416 kts 211°
2026-04-22 22:17 34.05939 -115.68604 36038 ft 417 kts 211°
2026-04-22 22:18 34.00514 -115.71167 36033 ft 418 kts 211°
2026-04-22 22:18 33.95085 -115.73723 36033 ft 418 kts 211°
2026-04-22 22:19 33.89687 -115.76293 36047 ft 416 kts 212°
2026-04-22 22:19 33.87014 -115.77608 35810 ft 417 kts 212°
2026-04-22 22:19 33.84305 -115.78947 35547 ft 417 kts 212°
2026-04-22 22:19 33.81619 -115.80267 35296 ft 417 kts 211°
2026-04-22 22:20 33.78895 -115.81598 34861 ft 413 kts 212°
2026-04-22 22:20 33.76208 -115.82906 33993 ft 416 kts 211°
2026-04-22 22:20 33.73441 -115.84219 32911 ft 424 kts 210°
2026-04-22 22:20 33.70683 -115.85516 31891 ft 430 kts 210°
2026-04-22 22:21 33.67858 -115.86834 30976 ft 436 kts 209°
2026-04-22 22:21 33.64999 -115.88168 30093 ft 442 kts 209°
2026-04-22 22:21 33.62045 -115.89544 29202 ft 447 kts 208°
2026-04-22 22:21 33.59125 -115.90904 28342 ft 449 kts 208°
2026-04-22 22:22 33.56193 -115.92271 27512 ft 451 kts 208°
2026-04-22 22:22 33.53399 -115.93951 26576 ft 445 kts 218°
2026-04-22 22:22 33.50973 -115.96204 25614 ft 439 kts 228°
2026-04-22 22:22 33.48984 -115.98904 25220 ft 435 kts 237°
2026-04-22 22:23 33.47180 -116.01942 24865 ft 433 kts 238°
2026-04-22 22:23 33.45418 -116.04951 24030 ft 438 kts 238°
2026-04-22 22:23 33.43669 -116.07957 23127 ft 436 kts 238°
2026-04-22 22:23 33.41922 -116.10957 22411 ft 432 kts 238°
2026-04-22 22:24 33.40201 -116.13913 21731 ft 429 kts 238°
2026-04-22 22:24 33.38482 -116.16869 21060 ft 425 kts 238°
2026-04-22 22:24 33.36805 -116.19743 20411 ft 423 kts 238°
2026-04-22 22:24 33.35019 -116.22523 19714 ft 422 kts 231°
2026-04-22 22:25 33.32877 -116.24914 19037 ft 420 kts 223°
2026-04-22 22:25 33.30416 -116.26892 18351 ft 421 kts 214°
2026-04-22 22:25 33.27819 -116.28488 17670 ft 418 kts 212°
2026-04-22 22:25 33.25216 -116.30022 17007 ft 414 kts 211°
2026-04-22 22:26 33.22624 -116.31533 16371 ft 410 kts 211°
2026-04-22 22:26 33.20049 -116.33036 15735 ft 406 kts 211°
2026-04-22 22:26 33.17520 -116.34511 15227 ft 399 kts 211°
2026-04-22 22:26 33.15047 -116.35952 14849 ft 389 kts 211°
2026-04-22 22:27 33.12626 -116.37364 14491 ft 379 kts 211°
2026-04-22 22:27 33.10258 -116.38745 14180 ft 369 kts 211°
2026-04-22 22:27 33.07971 -116.40082 13847 ft 359 kts 211°
2026-04-22 22:27 33.05769 -116.41367 13642 ft 347 kts 211°
2026-04-22 22:28 33.03608 -116.42625 13394 ft 337 kts 211°
2026-04-22 22:28 33.01552 -116.43890 13242 ft 322 kts 215°
2026-04-22 22:28 32.99687 -116.45341 13012 ft 311 kts 221°
2026-04-22 22:28 32.97995 -116.46962 12578 ft 308 kts 224°
2026-04-22 22:29 32.96355 -116.48623 12155 ft 307 kts 225°
2026-04-22 22:29 32.94720 -116.50287 11734 ft 305 kts 225°
2026-04-22 22:29 32.93109 -116.51922 11318 ft 304 kts 224°
2026-04-22 22:29 32.91482 -116.53569 10899 ft 302 kts 224°
2026-04-22 22:30 32.89881 -116.55186 10477 ft 301 kts 224°
2026-04-22 22:30 32.88289 -116.56792 10121 ft 296 kts 224°
2026-04-22 22:30 32.86720 -116.58367 10001 ft 283 kts 224°
2026-04-22 22:30 32.85221 -116.59871 9843 ft 273 kts 225°
2026-04-22 22:31 32.83766 -116.61337 9483 ft 273 kts 224°
2026-04-22 22:31 32.82489 -116.62627 9148 ft 273 kts 224°
2026-04-22 22:31 32.81023 -116.64106 8753 ft 271 kts 224°
2026-04-22 22:31 32.79577 -116.65564 8427 ft 270 kts 223°
2026-04-22 22:32 32.78171 -116.67025 8081 ft 267 kts 228°
2026-04-22 22:32 32.76991 -116.68698 7713 ft 263 kts 238°
2026-04-22 22:32 32.76035 -116.70576 7368 ft 261 kts 243°
2026-04-22 22:32 32.75162 -116.72431 7037 ft 259 kts 244°
2026-04-22 22:33 32.74287 -116.74304 6710 ft 258 kts 243°
2026-04-22 22:33 32.73755 -116.75441 6505 ft 258 kts 243°
2026-04-22 22:33 32.72875 -116.77309 6170 ft 256 kts 243°
2026-04-22 22:33 32.72005 -116.79148 5958 ft 248 kts 243°
2026-04-22 22:34 32.71320 -116.80590 5949 ft 239 kts 244°
2026-04-22 22:34 32.70604 -116.82313 5936 ft 226 kts 250°
2026-04-22 22:34 32.70031 -116.84058 5780 ft 223 kts 252°
2026-04-22 22:34 32.69499 -116.85774 5569 ft 221 kts 253°
2026-04-22 22:35 32.68975 -116.87469 5260 ft 220 kts 252°
2026-04-22 22:35 32.68451 -116.89198 4908 ft 220 kts 253°
2026-04-22 22:35 32.67949 -116.90908 4605 ft 220 kts 254°
2026-04-22 22:35 32.67459 -116.92615 4306 ft 218 kts 258°
2026-04-22 22:36 32.67359 -116.94353 4078 ft 206 kts 280°
2026-04-22 22:36 32.67701 -116.95978 3766 ft 200 kts 288°
2026-04-22 22:36 32.68100 -116.97544 3508 ft 192 kts 289°
2026-04-22 22:36 32.68478 -116.99010 3328 ft 181 kts 289°
2026-04-22 22:37 32.68838 -117.00431 3179 ft 180 kts 288°
2026-04-22 22:37 32.69197 -117.01869 3032 ft 180 kts 288°
2026-04-22 22:37 32.69545 -117.03277 2938 ft 179 kts 288°
2026-04-22 22:37 32.69897 -117.04707 2782 ft 177 kts 288°
2026-04-22 22:38 32.70246 -117.06097 2636 ft 176 kts 288°
2026-04-22 22:38 32.70581 -117.07465 2378 ft 168 kts 287°
2026-04-22 22:38 32.70896 -117.08775 1994 ft 162 kts 287°
2026-04-22 22:38 32.71197 -117.10028 1551 ft 158 kts 286°
2026-04-22 22:39 32.71490 -117.11240 1274 ft 142 kts 286°
2026-04-22 22:39 32.71737 -117.12323 1064 ft 132 kts 285°
2026-04-22 22:39 32.71988 -117.13384 928 ft 132 kts 286°
2026-04-22 22:39 32.72246 -117.14424 765 ft 132 kts 287°
2026-04-22 22:40 32.72501 -117.15466 551 ft 131 kts 285°
2026-04-22 22:40 32.72757 -117.16506 311 ft 129 kts 286°
2026-04-22 22:40 32.73004 -117.17525 139 ft 126 kts 285°
2026-04-22 22:40 32.73244 -117.18515 33 ft 116 kts 285°
2026-04-22 22:41 32.73410 -117.19209 25 ft 46 kts 286°
2026-04-22 22:41 32.73443 -117.19381 25 ft 20 kts 275°
2026-04-22 22:41 32.73420 -117.19511 24 ft 14 kts 252°
2026-04-22 22:41 32.73413 -117.19631 23 ft 15 kts 286°
2026-04-22 22:42 32.73443 -117.19752 22 ft 15 kts 286°
2026-04-22 22:42 32.73472 -117.19876 21 ft 15 kts 285°
2026-04-22 22:42 32.73436 -117.19964 21 ft 11 kts 192°
2026-04-22 22:42 32.73400 -117.20029 21 ft 7 kts 255°
2026-04-22 22:43 32.73396 -117.20046 21 ft 0 kts 254°